Richmond, VA

12:39 PM EST on November 21, 2017 (GMT -0500)
Richmond International

Weather History for KRIC - May, 2012

Change the Weather History Date:

Friday, May 4, 2012

  Actual Average Record
Temperature  
Mean Temperature 76 °F 63 °F  
Max Temperature 88 °F 75 °F 92 °F (1965)
Min Temperature 64 °F 51 °F 32 °F (1986)
Degree Days  
Heating Degree Days 0 4  
Month to date heating degree days 0 16  
Since 1 July heating degree days 2845 3708  
Cooling Degree Days 11 2  
Month to date cooling degree days 38 8  
Year to date cooling degree days 106 50  
Growing Degree Days 26 (Base 50)    
Moisture  
Dew Point 67 °F    
Average Humidity 79    
Maximum Humidity 100    
Minimum Humidity 57    
Precipitation  
Precipitation 0.29 in 0.11 in 1.90 in (1978)
Month to date precipitation 0.35 0.44  
Year to date precipitation 10.21 13.55  
Snow  
Snow 0.00 in 0.00 in 0.00 in (2002)
Month to date snowfall 0.0 0.0  
Since 1 July snowfall 4.5 10.3  
Snow Depth 0.00 in    
Sea Level Pressure  
Sea Level Pressure 29.97 in    
Wind  
Wind Speed 5 mph (SSE)    
Max Wind Speed 15 mph    
Max Gust Speed 18 mph    
Visibility 7 miles    
Events Fog , Rain , Thunderstorm    
T = Trace of Precipitation, MM = Missing Value Source: NWS Daily Summary

Daily Weather History Graph

Daily Weather History Graph

Search for Another Location

Airport or City:

Trip Planner

Search our weather history database for the weather conditions in past years. The results will help you decide how hot, cold, wet, or windy it might be!

Date:

Astronomy

May. 04, 2012 Rise Set
Actual Time 6:10 AM EDT 8:02 PM EDT
Civil Twilight 5:41 AM EDT 8:30 PM EDT
Nautical Twilight 5:07 AM EDT 9:05 PM EDT
Astronomical Twilight 4:30 AM EDT 9:42 PM EDT
Moon 6:38 PM EDT (5/4) 4:48 AM EDT (5/4)
Length of Visible Light 14h 49m
Length of Day
13h 52m
Waxing Gibbous, 97% of the Moon is Illuminated
May 4
Waxing Gibbous
May 5
Full
May 12
Last Quarter
May 20
New
May 28
First Quarter

Hourly Weather History & Observations

Time (EDT) Temp. Heat Index Dew Point Humidity Pressure Visibility Wind Dir Wind Speed Gust Speed Precip Events Conditions
12:54 AM 70.0 °F - 66.0 °F 87% 30.06 in 10.0 mi South 8.1 mph - N/A   Overcast
1:54 AM 69.1 °F - 64.9 °F 87% 30.05 in 10.0 mi SSE 6.9 mph - N/A   Overcast
2:54 AM 66.9 °F - 64.9 °F 93% 30.01 in 8.0 mi South 5.8 mph - N/A   Mostly Cloudy
3:54 AM 66.9 °F - 66.0 °F 97% 30.01 in 5.0 mi South 4.6 mph - N/A   Mostly Cloudy
4:54 AM 66.9 °F - 66.0 °F 97% 30.00 in 4.0 mi Calm Calm - N/A   Scattered Clouds
5:29 AM 64.4 °F - 64.4 °F 100% 30.00 in 3.0 mi East 3.5 mph - N/A   Scattered Clouds
5:54 AM 64.9 °F - 64.0 °F 97% 30.01 in 4.0 mi ESE 3.5 mph - N/A   Scattered Clouds
6:12 AM 64.4 °F - 64.4 °F 100% 30.00 in 2.0 mi Calm Calm - N/A   Scattered Clouds
6:17 AM 64.4 °F - 64.4 °F 100% 30.00 in 1.5 mi Calm Calm - N/A   Mostly Cloudy
6:24 AM 64.4 °F - 64.4 °F 100% 30.01 in 0.5 mi Calm Calm - N/A Fog Fog
6:41 AM 64.4 °F - 64.4 °F 100% 30.00 in 0.1 mi SE 3.5 mph - N/A Fog Fog
6:54 AM 64.9 °F - 64.9 °F 100% 30.02 in 0.1 mi Calm Calm - N/A Fog Fog
7:20 AM 64.4 °F - 64.4 °F 100% 30.00 in 0.2 mi SE 3.5 mph - N/A Fog Fog
7:28 AM 66.2 °F - 66.2 °F 100% 30.00 in 0.5 mi South 3.5 mph - N/A   Overcast
7:47 AM 66.2 °F - 66.2 °F 100% 30.01 in 1.0 mi South 5.8 mph - N/A   Overcast
7:54 AM 66.9 °F - 66.0 °F 97% 30.02 in 1.0 mi South 4.6 mph - N/A   Overcast
8:44 AM 69.8 °F - 68.0 °F 94% 30.01 in 4.0 mi SSW 4.6 mph - N/A   Overcast
8:54 AM 70.0 °F - 68.0 °F 93% 30.02 in 6.0 mi SSW 5.8 mph - N/A   Overcast
9:54 AM 75.9 °F - 68.0 °F 76% 30.01 in 9.0 mi WSW 8.1 mph - N/A   Overcast
10:54 AM 81.0 °F 84.1 °F 69.1 °F 67% 30.01 in 10.0 mi WSW 4.6 mph - N/A   Overcast
11:54 AM 82.9 °F 85.8 °F 68.0 °F 60% 29.99 in 10.0 mi WNW 3.5 mph - N/A   Overcast
12:54 PM 84.9 °F 88.8 °F 69.1 °F 59% 29.97 in 10.0 mi West 3.5 mph - N/A   Overcast
1:54 PM 84.9 °F 89.4 °F 70.0 °F 61% 29.97 in 10.0 mi Variable 3.5 mph - N/A   Overcast
2:54 PM 84.9 °F 88.8 °F 69.1 °F 59% 29.96 in 10.0 mi NNW 3.5 mph - N/A   Overcast
3:54 PM 86.0 °F 90.1 °F 69.1 °F 57% 29.95 in 10.0 mi North 5.8 mph - N/A   Overcast
4:54 PM 82.9 °F 86.5 °F 69.1 °F 63% 29.94 in 10.0 mi North 9.2 mph - N/A   Overcast
5:54 PM 82.0 °F 85.9 °F 70.0 °F 67% 29.92 in 10.0 mi East 5.8 mph - N/A   Overcast
6:54 PM 81.0 °F 84.4 °F 70.0 °F 69% 29.89 in 10.0 mi ESE 5.8 mph - N/A   Overcast
7:48 PM 75.2 °F - 69.8 °F 83% 29.90 in 10.0 mi SE 8.1 mph - 0.20 in Rain , Thunderstorm Light Thunderstorms and Rain
7:54 PM 75.2 °F - 66.2 °F 73% 29.89 in 10.0 mi ESE 10.4 mph - N/A Thunderstorm Thunderstorm
8:47 PM 71.6 °F - 68.0 °F 88% 29.90 in 10.0 mi East 6.9 mph - 0.08 in   Scattered Clouds
8:54 PM 71.1 °F - 66.9 °F 87% 29.91 in 10.0 mi East 6.9 mph - 0.08 in   Overcast
9:47 PM 69.8 °F - 66.2 °F 88% 29.91 in 10.0 mi East 6.9 mph - 0.01 in Thunderstorm Thunderstorm
9:54 PM 70.0 °F - 64.9 °F 84% 29.92 in 10.0 mi ESE 10.4 mph - 0.01 in Thunderstorm Thunderstorm
10:20 PM 69.8 °F - 66.2 °F 88% 29.90 in 10.0 mi South 3.5 mph - N/A   Overcast
10:54 PM 70.0 °F - 66.9 °F 90% 29.91 in 10.0 mi WNW 4.6 mph - N/A   Overcast
11:54 PM 69.1 °F - 66.9 °F 93% 29.91 in 10.0 mi NE 3.5 mph - N/A   Overcast